Location: ??
(34.7252°N, 135.5457°E)
Time: 17:47:07
(UTC+00:00)

CZ-4B R/B - Pass Details

Date: 24 September 2020
Orbit: 391 x 461 km, 97.6° (Epoch: 27 October)

Event Time Altitude Azimuth Distance (km) Brightness Sun altitude
Rises 19:44:37 0° 172° (S) 2,314 5.0 -13.8°
Reaches altitude 10° 19:46:34 10° 175° (S) 1,470 4.0 -13.4°
Maximum altitude 19:49:41 67° 259° (WSW) 455 1.1 -12.8°
Drops below altitude 10° 19:52:55 10° 343° (NNW) 1,521 4.0 -12.1°
Sets 19:54:58 0° 346° (NNW) 2,405 5.0 -11.7°
